contact:dominique.lefevre@mio.osupytheas.fr, maurice.libes@osupytheas.fr, didier.mallarino@osupytheas.fr
Project:EMSO http://www.emso-fr.org/EMSO-France
Depth: 2436.0 m
Title:EMSO Ligure Ouest : Data MII capteur AQUADOPP
Date,Latitude,Longitude,X_East,Y_North,Z_Up,Amplitude_X,Amplitude_Y,Amplitude_Z,Batterie,SoundSpeed,Heading,Pitch,Roll,Pressure,TIS,Speed,Direction
, degrees North, degrees East, m.s-1, m.s-1,m.s-1, 1, 1, 1, Volt, m.s-1, degree, degree, degree, dbar, degree_C, m.s-1, degree
2020-03-17T00:04:03,42.805,6.029,-0.006,0.009,-0.01,104.0,106.0,101.0,13.3,1505.3,328.3,-0.7,1.8,2470.503,13.31,0.01,326.3
2020-03-17T00:07:03,42.805,6.029,-0.001,0.005,-0.024,104.0,106.0,100.0,13.4,1505.3,324.6,-0.7,1.8,2470.492,13.31,0.005,348.7
2020-03-17T00:10:03,42.805,6.029,-0.001,0.035,0.001,103.0,105.0,102.0,13.4,1505.3,325.5,-0.7,1.8,2470.454,13.32,0.035,358.4
2020-03-17T00:13:03,42.805,6.029,-0.014,0.015,-0.041,103.0,105.0,99.0,13.4,1505.3,323.7,-0.7,1.8,2470.448,13.32,0.02,317.0
2020-03-17T00:16:03,42.805,6.029,-0.016,-0.011,-0.024,102.0,106.0,101.0,13.3,1505.3,326.5,-0.7,1.8,2470.439,13.32,0.019,235.5
2020-03-17T00:19:03,42.805,6.029,0.008,-0.007,-0.007,103.0,104.0,100.0,13.3,1505.3,325.6,-0.7,1.8,2470.469,13.33,0.01,131.2
2020-03-17T00:22:03,42.805,6.029,-0.034,-0.001,-0.056,104.0,106.0,101.0,13.4,1505.3,326.5,-0.7,1.8,2470.457,13.33,0.034,268.3
2020-03-17T00:25:03,42.805,6.029,0.0,0.002,-0.037,103.0,106.0,100.0,13.4,1505.3,324.5,-0.7,1.8,2470.481,13.33,0.002,0.0
2020-03-17T00:28:03,42.805,6.029,-0.01,-0.013,-0.064,104.0,106.0,101.0,13.3,1505.3,326.4,-0.7,1.8,2470.468,13.33,0.016,217.6
2020-03-17T00:31:03,42.805,6.029,-0.033,0.007,-0.065,104.0,107.0,100.0,13.4,1505.3,326.8,-0.7,1.8,2470.438,13.33,0.033,282.0
2020-03-17T00:34:03,42.805,6.029,-0.038,0.014,-0.054,103.0,108.0,101.0,13.3,1505.3,324.9,-0.7,1.8,2470.434,13.33,0.04,290.2
2020-03-17T00:37:03,42.805,6.029,-0.002,0.0,-0.034,101.0,105.0,101.0,13.4,1505.3,326.7,-0.7,1.8,2470.448,13.33,0.002,270.0
2020-03-17T00:40:03,42.805,6.029,-0.022,0.007,-0.061,103.0,106.0,100.0,13.3,1505.3,326.7,-0.7,1.8,2470.449,13.33,0.023,287.6
2020-03-17T00:43:03,42.805,6.029,-0.026,-0.003,-0.034,103.0,106.0,100.0,13.4,1505.3,326.1,-0.7,1.8,2470.448,13.33,0.026,263.4
2020-03-17T00:46:03,42.805,6.029,-0.024,0.006,-0.048,104.0,104.0,101.0,13.3,1505.3,325.0,-0.7,1.8,2470.423,13.33,0.024,284.0
2020-03-17T00:49:03,42.805,6.029,-0.001,0.017,-0.019,103.0,106.0,100.0,13.3,1505.3,323.8,-0.7,1.9,2470.434,13.33,0.017,356.6
2020-03-17T00:52:03,42.805,6.029,-0.021,-0.002,-0.038,105.0,105.0,101.0,13.4,1505.3,326.9,-0.7,1.8,2470.424,13.33,0.021,264.6
2020-03-17T00:55:03,42.805,6.029,-0.036,0.017,-0.029,104.0,105.0,100.0,13.3,1505.3,326.9,-0.7,1.8,2470.459,13.33,0.039,295.3
2020-03-17T00:58:03,42.805,6.029,-0.023,0.012,-0.046,103.0,106.0,102.0,13.4,1505.3,323.2,-0.7,1.8,2470.43,13.33,0.025,297.6
2020-03-17T01:04:03,42.805,6.029,-0.011,-0.003,-0.081,104.0,108.0,103.0,13.4,1505.3,326.7,-0.8,1.8,2470.475,13.31,0.011,254.7
2020-03-17T01:07:03,42.805,6.029,-0.01,-0.017,-0.05,103.0,108.0,101.0,13.3,1505.3,322.7,-0.7,1.8,2470.484,13.31,0.019,210.5
2020-03-17T01:10:03,42.805,6.029,-0.004,0.026,-0.028,103.0,106.0,102.0,13.4,1505.3,325.7,-0.7,1.8,2470.488,13.32,0.026,351.3
2020-03-17T01:13:03,42.805,6.029,-0.026,0.023,-0.043,103.0,107.0,100.0,13.3,1505.3,326.4,-0.7,1.8,2470.494,13.32,0.034,311.5
2020-03-17T01:16:03,42.805,6.029,-0.022,0.005,-0.046,102.0,106.0,102.0,13.3,1505.3,327.4,-0.7,1.8,2470.475,13.32,0.022,282.8
2020-03-17T01:19:03,42.805,6.029,-0.041,0.013,0.005,103.0,107.0,102.0,13.4,1505.3,324.5,-0.7,1.9,2470.438,13.33,0.043,287.6
2020-03-17T01:22:02,42.805,6.029,0.01,0.027,-0.014,103.0,107.0,100.0,13.4,1505.3,325.3,-0.7,1.8,2470.465,13.33,0.028,20.3
2020-03-17T01:25:03,42.805,6.029,-0.038,0.013,-0.086,104.0,108.0,100.0,13.4,1505.3,324.6,-0.7,1.8,2470.45,13.33,0.04,288.9
2020-03-17T01:28:03,42.805,6.029,0.005,0.028,-0.034,102.0,108.0,100.0,13.4,1505.3,328.3,-0.7,1.8,2470.467,13.33,0.028,10.1
2020-03-17T01:31:03,42.805,6.029,0.015,0.022,-0.044,103.0,107.0,101.0,13.3,1505.3,327.8,-0.7,1.9,2470.485,13.33,0.026,34.3
2020-03-17T01:34:03,42.805,6.029,-0.03,0.007,-0.054,104.0,107.0,102.0,13.3,1505.3,324.2,-0.7,1.8,2470.474,13.33,0.03,283.1
2020-03-17T01:37:03,42.805,6.029,-0.024,0.008,-0.039,103.0,108.0,100.0,13.4,1505.3,324.0,-0.7,1.9,2470.461,13.33,0.025,288.4
2020-03-17T01:40:03,42.805,6.029,-0.013,0.022,-0.046,102.0,109.0,100.0,13.4,1505.3,328.2,-0.7,1.9,2470.487,13.33,0.025,329.4
2020-03-17T01:43:03,42.805,6.029,-0.023,0.023,-0.051,103.0,107.0,101.0,13.4,1505.3,326.1,-0.8,1.9,2470.429,13.33,0.032,315.0
2020-03-17T01:46:03,42.805,6.029,-0.017,0.024,-0.039,103.0,106.0,101.0,13.4,1505.3,328.1,-0.7,1.8,2470.466,13.33,0.029,324.7
2020-03-17T01:49:03,42.805,6.029,-0.021,0.009,-0.059,102.0,107.0,100.0,13.4,1505.3,322.9,-0.7,1.8,2470.485,13.33,0.022,293.2
2020-03-17T01:52:03,42.805,6.029,-0.022,0.013,-0.025,103.0,107.0,100.0,13.4,1505.3,327.0,-0.7,1.8,2470.468,13.33,0.025,300.6
2020-03-17T01:55:03,42.805,6.029,0.001,0.008,-0.023,102.0,107.0,101.0,13.4,1505.3,327.2,-0.7,1.8,2470.473,13.33,0.008,7.1
2020-03-17T01:58:03,42.805,6.029,-0.001,0.008,-0.005,103.0,106.0,101.0,13.3,1505.3,325.2,-0.7,1.8,2470.452,13.33,0.008,352.9
2020-03-17T02:04:03,42.805,6.029,-0.004,0.018,-0.036,104.0,107.0,101.0,13.4,1505.3,327.8,-0.7,1.8,2470.511,13.31,0.018,347.5
2020-03-17T02:07:03,42.805,6.029,-0.022,0.014,-0.044,102.0,108.0,100.0,13.4,1505.3,326.9,-0.7,1.8,2470.477,13.32,0.026,302.5
2020-03-17T02:10:03,42.805,6.029,0.003,-0.002,-0.015,103.0,107.0,101.0,13.4,1505.3,328.4,-0.7,1.8,2470.468,13.32,0.003,123.7
2020-03-17T02:13:03,42.805,6.029,0.005,-0.004,-0.02,104.0,107.0,100.0,13.4,1505.3,327.7,-0.7,1.8,2470.54,13.32,0.006,128.7
2020-03-17T02:16:03,42.805,6.029,-0.013,0.013,-0.074,102.0,108.0,101.0,13.4,1505.3,327.8,-0.7,1.8,2470.493,13.33,0.018,315.0
2020-03-17T02:19:03,42.805,6.029,-0.031,0.004,-0.045,104.0,107.0,99.0,13.3,1505.3,326.5,-0.7,1.9,2470.502,13.33,0.031,277.3
2020-03-17T02:22:03,42.805,6.029,-0.026,0.037,-0.017,104.0,105.0,100.0,13.3,1505.3,328.2,-0.7,1.8,2470.47,13.33,0.045,324.9
2020-03-17T02:25:03,42.805,6.029,-0.025,0.016,-0.031,102.0,105.0,102.0,13.4,1505.3,327.5,-0.7,1.8,2470.437,13.33,0.029,302.6
2020-03-17T02:28:03,42.805,6.029,-0.038,0.0,-0.052,104.0,107.0,99.0,13.3,1505.3,325.3,-0.7,1.8,2470.481,13.33,0.038,270.0
2020-03-17T02:31:03,42.805,6.029,0.0,0.013,-0.051,104.0,107.0,100.0,13.4,1505.3,325.7,-0.7,1.8,2470.486,13.33,0.013,0.0
2020-03-17T02:34:03,42.805,6.029,-0.017,0.01,-0.033,103.0,105.0,101.0,13.4,1505.3,324.6,-0.7,1.8,2470.478,13.33,0.019,300.5
2020-03-17T02:37:03,42.805,6.029,-0.008,-0.002,-0.038,103.0,104.0,101.0,13.4,1505.3,324.9,-0.7,1.8,2470.517,13.33,0.008,256.0
2020-03-17T02:40:03,42.805,6.029,-0.019,0.0,-0.031,101.0,109.0,102.0,13.3,1505.3,326.0,-0.7,1.8,2470.497,13.33,0.019,270.0
2020-03-17T02:43:03,42.805,6.029,-0.007,0.0,-0.012,103.0,105.0,100.0,13.4,1505.3,324.2,-0.7,1.8,2470.493,13.33,0.007,270.0
2020-03-17T02:46:03,42.805,6.029,-0.001,0.01,-0.019,103.0,106.0,100.0,13.3,1505.3,324.6,-0.7,1.8,2470.478,13.33,0.01,354.3
2020-03-17T02:49:03,42.805,6.029,-0.014,0.011,-0.061,102.0,105.0,101.0,13.4,1505.3,324.9,-0.7,1.8,2470.477,13.33,0.017,308.2
2020-03-17T02:52:03,42.805,6.029,-0.027,0.013,-0.04,103.0,104.0,101.0,13.4,1505.3,325.2,-0.7,1.9,2470.477,13.33,0.029,295.7
2020-03-17T02:55:03,42.805,6.029,-0.033,0.011,-0.038,102.0,104.0,101.0,13.4,1505.3,326.0,-0.7,1.8,2470.446,13.33,0.034,288.4
2020-03-17T02:58:03,42.805,6.029,-0.011,0.006,-0.075,103.0,103.0,100.0,13.3,1505.3,325.2,-0.7,1.8,2470.489,13.33,0.012,298.6
2020-03-17T03:04:03,42.805,6.029,-0.021,0.009,-0.049,104.0,104.0,106.0,13.3,1505.3,326.3,-0.7,1.8,2470.482,13.31,0.022,293.2
2020-03-17T03:07:03,42.805,6.029,-0.028,0.004,-0.078,102.0,104.0,101.0,13.4,1505.3,324.2,-0.7,1.8,2470.47,13.32,0.028,278.1
2020-03-17T03:10:03,42.805,6.029,-0.021,-0.001,-0.035,104.0,106.0,101.0,13.3,1505.3,324.3,-0.7,1.9,2470.51,13.32,0.021,267.3
2020-03-17T03:13:03,42.805,6.029,-0.01,-0.004,-0.02,102.0,105.0,102.0,13.3,1505.3,327.0,-0.7,1.8,2470.479,13.33,0.01,248.2
2020-03-17T03:16:03,42.805,6.029,-0.014,0.005,-0.031,102.0,104.0,102.0,13.3,1505.3,325.8,-0.7,1.9,2470.47,13.33,0.014,289.6
2020-03-17T03:19:03,42.805,6.029,-0.031,0.011,-0.05,101.0,106.0,101.0,13.4,1505.3,324.6,-0.7,1.8,2470.496,13.33,0.032,289.5
2020-03-17T03:22:03,42.805,6.029,-0.041,0.001,-0.084,103.0,106.0,100.0,13.4,1505.3,323.7,-0.7,1.8,2470.473,13.33,0.041,271.4
2020-03-17T03:25:03,42.805,6.029,-0.018,-0.02,-0.06,104.0,106.0,101.0,13.4,1505.3,324.9,-0.7,1.8,2470.496,13.33,0.026,222.0
2020-03-17T03:28:03,42.805,6.029,-0.036,0.002,-0.054,102.0,104.0,101.0,13.4,1505.3,328.4,-0.7,1.8,2470.467,13.33,0.036,273.2
2020-03-17T03:31:03,42.805,6.029,-0.012,-0.003,-0.039,104.0,104.0,100.0,13.4,1505.3,324.9,-0.7,1.8,2470.508,13.33,0.012,256.0
2020-03-17T03:34:03,42.805,6.029,-0.025,0.006,-0.026,104.0,104.0,101.0,13.4,1505.3,326.0,-0.7,1.8,2470.502,13.33,0.025,283.5
2020-03-17T03:37:03,42.805,6.029,-0.006,-0.01,-0.052,103.0,105.0,101.0,13.4,1505.3,325.3,-0.7,1.8,2470.469,13.33,0.011,211.0
2020-03-17T03:40:03,42.805,6.029,-0.019,-0.012,-0.056,104.0,104.0,100.0,13.4,1505.3,323.9,-0.7,1.8,2470.472,13.33,0.022,237.7
2020-03-17T03:43:03,42.805,6.029,-0.028,0.018,-0.057,103.0,105.0,101.0,13.3,1505.3,327.5,-0.7,1.8,2470.512,13.33,0.033,302.7
2020-03-17T03:46:03,42.805,6.029,-0.024,-0.006,-0.019,102.0,106.0,102.0,13.4,1505.3,327.0,-0.7,1.8,2470.482,13.33,0.024,256.0
2020-03-17T03:49:03,42.805,6.029,-0.038,-0.001,-0.063,104.0,102.0,101.0,13.4,1505.3,322.9,-0.7,1.8,2470.469,13.33,0.038,268.5
2020-03-17T03:52:03,42.805,6.029,-0.016,0.012,-0.046,103.0,103.0,101.0,13.4,1505.3,327.7,-0.7,1.8,2470.468,13.33,0.02,306.9
2020-03-17T03:55:03,42.805,6.029,-0.046,0.01,-0.024,103.0,105.0,101.0,13.4,1505.3,326.7,-0.7,1.8,2470.481,13.33,0.047,282.3
2020-03-17T03:58:03,42.805,6.029,-0.055,-0.009,-0.092,101.0,104.0,102.0,13.4,1505.3,323.7,-0.7,1.8,2470.484,13.33,0.055,260.7
2020-03-17T04:04:03,42.805,6.029,-0.01,0.009,-0.053,103.0,105.0,100.0,13.4,1505.3,323.5,-0.7,1.8,2470.478,13.31,0.013,312.0
2020-03-17T04:07:03,42.805,6.029,-0.03,-0.013,-0.05,104.0,104.0,103.0,13.4,1505.3,326.0,-0.7,1.8,2470.461,13.32,0.032,246.6
2020-03-17T04:10:03,42.805,6.029,-0.041,-0.006,-0.065,103.0,105.0,101.0,13.3,1505.3,328.3,-0.7,1.8,2470.488,13.32,0.041,261.7
2020-03-17T04:13:03,42.805,6.029,-0.01,0.002,-0.046,104.0,103.0,102.0,13.4,1505.3,326.8,-0.7,1.8,2470.488,13.32,0.01,281.3
2020-03-17T04:16:03,42.805,6.029,-0.014,0.001,-0.053,103.0,104.0,100.0,13.4,1505.3,326.3,-0.7,1.9,2470.501,13.33,0.014,274.1
2020-03-17T04:19:03,42.805,6.029,0.012,-0.012,-0.041,102.0,104.0,100.0,13.3,1505.3,326.5,-0.7,1.8,2470.457,13.33,0.016,135.0
2020-03-17T04:22:03,42.805,6.029,-0.015,-0.006,-0.052,101.0,103.0,107.0,13.3,1505.3,327.9,-0.7,1.8,2470.47,13.33,0.016,248.2
2020-03-17T04:25:03,42.805,6.029,-0.025,-0.015,-0.059,103.0,105.0,101.0,13.4,1505.3,325.8,-0.7,1.8,2470.478,13.33,0.029,239.0
2020-03-17T04:28:03,42.805,6.029,-0.023,-0.023,-0.076,103.0,105.0,100.0,13.4,1505.3,325.6,-0.7,1.8,2470.469,13.33,0.032,225.0
2020-03-17T04:31:03,42.805,6.029,-0.009,-0.007,-0.038,102.0,105.0,100.0,13.4,1505.3,323.4,-0.7,1.8,2470.497,13.33,0.011,232.1
2020-03-17T04:34:03,42.805,6.029,-0.012,-0.016,-0.039,103.0,104.0,100.0,13.4,1505.3,326.3,-0.7,1.8,2470.45,13.33,0.02,216.9
2020-03-17T04:37:02,42.805,6.029,-0.018,-0.019,-0.072,103.0,104.0,101.0,13.4,1505.3,327.2,-0.7,1.8,2470.47,13.33,0.026,223.5
2020-03-17T04:40:03,42.805,6.029,-0.003,-0.005,-0.055,103.0,105.0,101.0,13.3,1505.3,324.1,-0.7,1.9,2470.487,13.33,0.005,211.0
2020-03-17T04:43:03,42.805,6.029,-0.021,-0.015,-0.057,104.0,105.0,100.0,13.3,1505.3,324.5,-0.7,1.8,2470.466,13.33,0.025,234.5
2020-03-17T04:46:03,42.805,6.029,-0.013,0.004,-0.053,103.0,104.0,100.0,13.3,1505.3,327.3,-0.7,1.8,2470.458,13.33,0.013,287.1
2020-03-17T04:49:03,42.805,6.029,-0.022,-0.011,-0.048,104.0,105.0,101.0,13.3,1505.3,324.0,-0.7,1.8,2470.429,13.33,0.024,243.4
2020-03-17T04:52:03,42.805,6.029,-0.019,-0.006,-0.041,105.0,105.0,101.0,13.4,1505.3,323.7,-0.7,1.9,2470.437,13.33,0.019,252.5
2020-03-17T04:55:03,42.805,6.029,-0.004,-0.007,-0.069,103.0,106.0,100.0,13.4,1505.3,325.4,-0.7,1.9,2470.487,13.33,0.008,209.7
2020-03-17T04:58:03,42.805,6.029,-0.035,-0.005,-0.059,103.0,106.0,100.0,13.3,1505.3,326.2,-0.7,1.8,2470.436,13.33,0.035,261.9
2020-03-17T05:04:03,42.805,6.029,0.006,-0.02,-0.034,103.0,104.0,100.0,13.4,1505.3,325.0,-0.7,1.9,2470.498,13.31,0.02,163.3
2020-03-17T05:07:03,42.805,6.029,-0.004,-0.009,-0.027,102.0,104.0,101.0,13.4,1505.3,326.9,-0.7,1.8,2470.472,13.31,0.009,204.0
2020-03-17T05:10:03,42.805,6.029,-0.026,-0.007,-0.035,102.0,105.0,101.0,13.4,1505.3,323.6,-0.7,1.8,2470.454,13.32,0.026,254.9
2020-03-17T05:13:03,42.805,6.029,-0.03,-0.018,-0.008,102.0,105.0,101.0,13.4,1505.3,326.9,-0.7,1.9,2470.484,13.32,0.034,239.0
2020-03-17T05:16:03,42.805,6.029,-0.021,-0.01,-0.057,103.0,104.0,101.0,13.3,1505.3,326.0,-0.7,1.8,2470.453,13.32,0.023,244.5
2020-03-17T05:19:03,42.805,6.029,-0.031,0.0,-0.047,101.0,104.0,102.0,13.4,1505.3,325.0,-0.8,1.8,2470.405,13.32,0.03,270.0
2020-03-17T05:22:03,42.805,6.029,-0.011,-0.024,-0.023,103.0,104.0,101.0,13.4,1505.3,323.3,-0.7,1.8,2470.438,13.32,0.026,204.6
2020-03-17T05:25:03,42.805,6.029,-0.011,0.003,-0.032,104.0,105.0,101.0,13.3,1505.3,326.2,-0.7,1.8,2470.447,13.33,0.011,285.3
2020-03-17T05:28:03,42.805,6.029,0.0,0.003,-0.04,103.0,105.0,102.0,13.4,1505.3,323.6,-0.7,1.8,2470.461,13.33,0.003,0.0
2020-03-17T05:31:03,42.805,6.029,-0.04,-0.005,-0.043,103.0,106.0,101.0,13.4,1505.3,323.8,-0.7,1.8,2470.43,13.33,0.04,262.9
2020-03-17T05:34:03,42.805,6.029,-0.044,-0.009,-0.053,103.0,107.0,101.0,13.4,1505.3,325.4,-0.7,1.8,2470.477,13.33,0.044,258.4
2020-03-17T05:37:03,42.805,6.029,-0.012,-0.007,-0.034,103.0,105.0,101.0,13.3,1505.3,324.5,-0.7,1.8,2470.43,13.33,0.013,239.7
2020-03-17T05:40:03,42.805,6.029,-0.016,-0.004,-0.044,102.0,106.0,100.0,13.4,1505.3,324.4,-0.7,1.8,2470.413,13.33,0.016,256.0
2020-03-17T05:43:03,42.805,6.029,-0.035,-0.009,-0.045,102.0,106.0,101.0,13.3,1505.3,325.8,-0.7,1.8,2470.411,13.33,0.036,255.6
2020-03-17T05:46:03,42.805,6.029,-0.019,0.007,-0.041,103.0,105.0,100.0,13.4,1505.3,324.7,-0.7,1.9,2470.414,13.33,0.02,290.2
2020-03-17T05:49:03,42.805,6.029,-0.014,-0.011,-0.012,102.0,106.0,102.0,13.3,1505.3,324.4,-0.7,1.9,2470.386,13.33,0.017,231.8
2020-03-17T05:52:03,42.805,6.029,-0.024,-0.009,-0.044,103.0,106.0,102.0,13.4,1505.3,325.1,-0.7,1.9,2470.402,13.33,0.025,249.4
2020-03-17T05:55:03,42.805,6.029,0.0,-0.007,-0.039,103.0,106.0,102.0,13.4,1505.3,328.6,-0.7,1.9,2470.41,13.33,0.007,180.0
2020-03-17T05:58:03,42.805,6.029,0.008,0.017,-0.028,102.0,105.0,102.0,13.4,1505.3,327.1,-0.8,1.8,2470.404,13.33,0.018,25.2
2020-03-17T06:04:03,42.805,6.029,-0.01,-0.01,-0.058,103.0,106.0,101.0,13.4,1505.3,324.8,-0.7,1.8,2470.423,13.31,0.014,225.0
2020-03-17T06:07:03,42.805,6.029,-0.022,-0.007,-0.043,106.0,105.0,101.0,13.4,1505.3,327.0,-0.7,1.8,2470.47,13.31,0.023,252.4
2020-03-17T06:10:03,42.805,6.029,-0.029,-0.012,-0.044,102.0,105.0,100.0,13.4,1505.3,323.7,-0.7,1.8,2470.476,13.32,0.031,247.5
2020-03-17T06:13:03,42.805,6.029,-0.065,-0.016,-0.062,103.0,106.0,100.0,13.4,1505.3,324.7,-0.7,1.8,2470.468,13.32,0.066,256.2
2020-03-17T06:16:03,42.805,6.029,-0.032,0.002,-0.06,103.0,105.0,101.0,13.3,1505.3,325.1,-0.7,1.8,2470.433,13.32,0.032,273.6
2020-03-17T06:19:03,42.805,6.029,-0.017,-0.001,-0.007,102.0,106.0,103.0,13.3,1505.3,326.6,-0.7,1.8,2470.449,13.33,0.017,266.6
2020-03-17T06:22:03,42.805,6.029,-0.036,-0.02,-0.04,104.0,106.0,100.0,13.4,1505.3,323.8,-0.7,1.8,2470.429,13.33,0.041,240.9
2020-03-17T06:25:03,42.805,6.029,-0.022,-0.01,-0.064,104.0,104.0,102.0,13.4,1505.3,324.8,-0.8,1.8,2470.39,13.33,0.024,245.6
2020-03-17T06:28:03,42.805,6.029,-0.045,-0.008,-0.084,104.0,105.0,100.0,13.4,1505.3,326.6,-0.7,1.8,2470.402,13.33,0.045,259.9
2020-03-17T06:31:03,42.805,6.029,-0.016,-0.016,-0.045,103.0,104.0,100.0,13.4,1505.3,328.1,-0.7,1.8,2470.455,13.33,0.022,225.0
2020-03-17T06:34:03,42.805,6.029,-0.005,-0.004,-0.034,104.0,103.0,102.0,13.4,1505.3,325.0,-0.7,1.8,2470.42,13.33,0.006,231.3
2020-03-17T06:37:03,42.805,6.029,-0.01,-0.012,-0.046,103.0,106.0,101.0,13.4,1505.3,323.3,-0.7,1.8,2470.411,13.33,0.015,219.8
2020-03-17T06:40:03,42.805,6.029,-0.006,-0.012,-0.018,103.0,105.0,100.0,13.4,1505.3,325.8,-0.7,1.9,2470.447,13.33,0.013,206.6
2020-03-17T06:43:03,42.805,6.029,-0.033,-0.005,-0.049,104.0,105.0,100.0,13.4,1505.3,327.1,-0.7,1.8,2470.411,13.33,0.033,261.4
2020-03-17T06:46:03,42.805,6.029,-0.039,-0.017,-0.092,104.0,104.0,101.0,13.4,1505.3,326.7,-0.7,1.8,2470.411,13.33,0.042,246.5
2020-03-17T06:49:03,42.805,6.029,-0.045,-0.012,-0.08,103.0,105.0,102.0,13.4,1505.3,326.0,-0.7,1.9,2470.392,13.33,0.046,255.1
2020-03-17T06:52:03,42.805,6.029,-0.016,-0.006,-0.034,105.0,107.0,102.0,13.4,1505.3,325.1,-0.7,1.8,2470.448,13.33,0.017,249.4
2020-03-17T06:55:03,42.805,6.029,0.001,-0.003,-0.028,102.0,106.0,101.0,13.4,1505.3,327.8,-0.7,1.8,2470.394,13.33,0.003,161.6
2020-03-17T06:58:03,42.805,6.029,-0.013,0.017,-0.04,104.0,104.0,100.0,13.3,1505.3,322.9,-0.7,1.8,2470.421,13.33,0.021,322.6
2020-03-17T07:04:03,42.805,6.029,-0.032,0.001,-0.055,102.0,104.0,101.0,13.4,1505.3,328.1,-0.7,1.8,2470.435,13.31,0.032,271.8
2020-03-17T07:07:03,42.805,6.029,-0.003,-0.017,-0.054,104.0,105.0,101.0,13.4,1505.3,323.3,-0.7,1.8,2470.419,13.31,0.017,190.0
2020-03-17T07:10:03,42.805,6.029,-0.032,-0.004,-0.069,102.0,105.0,102.0,13.4,1505.3,325.8,-0.7,1.8,2470.436,13.32,0.032,262.9
2020-03-17T07:13:03,42.805,6.029,-0.003,0.004,-0.042,103.0,108.0,101.0,13.4,1505.3,324.8,-0.7,1.8,2470.419,13.32,0.005,323.1
2020-03-17T07:16:03,42.805,6.029,-0.014,-0.007,-0.029,102.0,106.0,101.0,13.3,1505.3,327.4,-0.7,1.8,2470.414,13.33,0.015,243.4
2020-03-17T07:19:03,42.805,6.029,-0.012,-0.011,-0.032,104.0,106.0,101.0,13.4,1505.3,323.3,-0.7,1.9,2470.433,13.33,0.016,227.5
2020-03-17T07:22:03,42.805,6.029,-0.014,-0.012,-0.011,104.0,106.0,99.0,13.4,1505.3,323.9,-0.7,1.8,2470.427,13.33,0.018,229.4
2020-03-17T07:25:03,42.805,6.029,-0.027,-0.008,-0.035,102.0,104.0,100.0,13.4,1505.3,323.9,-0.7,1.8,2470.399,13.33,0.028,253.5
2020-03-17T07:28:03,42.805,6.029,-0.064,0.003,-0.048,103.0,105.0,99.0,13.4,1505.3,327.7,-0.7,1.8,2470.432,13.33,0.064,272.7
2020-03-17T07:31:03,42.805,6.029,-0.028,0.009,-0.053,102.0,103.0,101.0,13.4,1505.3,324.9,-0.7,1.8,2470.419,13.33,0.029,287.8
2020-03-17T07:34:03,42.805,6.029,-0.061,-0.006,-0.057,103.0,105.0,101.0,13.4,1505.3,325.3,-0.7,1.8,2470.426,13.33,0.061,264.4
2020-03-17T07:37:03,42.805,6.029,-0.005,-0.008,-0.028,101.0,106.0,101.0,13.3,1505.3,323.8,-0.7,1.8,2470.461,13.33,0.009,212.0
2020-03-17T07:40:03,42.805,6.029,-0.006,0.004,-0.04,103.0,104.0,101.0,13.4,1505.3,326.0,-0.7,1.8,2470.397,13.33,0.007,303.7
2020-03-17T07:43:03,42.805,6.029,0.002,0.002,-0.019,102.0,102.0,101.0,13.4,1505.3,324.4,-0.7,1.8,2470.379,13.33,0.002,45.0
2020-03-17T07:46:03,42.805,6.029,0.001,0.012,-0.032,104.0,105.0,99.0,13.4,1505.3,327.7,-0.7,1.8,2470.393,13.33,0.012,4.8
2020-03-17T07:49:03,42.805,6.029,-0.027,-0.016,-0.052,103.0,104.0,100.0,13.4,1505.3,323.7,-0.7,1.8,2470.361,13.33,0.031,239.3
2020-03-17T07:52:03,42.805,6.029,-0.029,-0.001,-0.023,102.0,106.0,101.0,13.4,1505.3,327.3,-0.7,1.8,2470.427,13.33,0.029,268.0
2020-03-17T07:55:03,42.805,6.029,-0.029,0.004,-0.008,103.0,104.0,102.0,13.4,1505.3,327.0,-0.7,1.9,2470.364,13.33,0.029,277.8
2020-03-17T07:58:03,42.805,6.029,-0.04,0.01,-0.044,104.0,102.0,101.0,13.4,1505.3,327.4,-0.7,1.9,2470.382,13.33,0.041,284.0
2020-03-17T08:04:03,42.805,6.029,-0.018,-0.011,-0.036,103.0,105.0,100.0,13.3,1505.3,328.1,-0.8,1.8,2470.426,13.31,0.021,238.6
2020-03-17T08:07:03,42.805,6.029,-0.024,0.006,-0.057,102.0,105.0,100.0,13.3,1505.3,326.5,-0.7,1.8,2470.432,13.31,0.024,284.0
2020-03-17T08:10:03,42.805,6.029,-0.026,0.006,-0.061,104.0,104.0,100.0,13.4,1505.3,323.4,-0.7,1.8,2470.407,13.32,0.026,283.0
2020-03-17T08:13:03,42.805,6.029,-0.027,-0.015,-0.038,102.0,104.0,100.0,13.3,1505.3,324.8,-0.7,1.8,2470.423,13.32,0.03,240.9
2020-03-17T08:16:03,42.805,6.029,0.001,0.015,-0.028,104.0,105.0,99.0,13.4,1505.3,327.5,-0.7,1.8,2470.413,13.32,0.015,3.8
2020-03-17T08:19:03,42.805,6.029,0.01,0.0,-0.01,102.0,106.0,102.0,13.4,1505.3,326.2,-0.7,1.8,2470.413,13.33,0.01,90.0
2020-03-17T08:22:03,42.805,6.029,-0.006,-0.008,-0.032,102.0,105.0,99.0,13.3,1505.3,326.8,-0.7,1.8,2470.434,13.33,0.01,216.9
2020-03-17T08:25:03,42.805,6.029,-0.005,-0.003,-0.035,101.0,103.0,100.0,13.3,1505.3,324.4,-0.7,1.9,2470.347,13.33,0.005,239.0
2020-03-17T08:28:03,42.805,6.029,-0.033,-0.008,-0.062,102.0,105.0,101.0,13.3,1505.3,328.4,-0.7,1.9,2470.361,13.33,0.033,256.4
2020-03-17T08:31:03,42.805,6.029,-0.065,0.009,-0.044,103.0,104.0,100.0,13.3,1505.3,324.8,-0.7,1.9,2470.36,13.33,0.065,277.9
2020-03-17T08:34:03,42.805,6.029,-0.027,0.009,-0.042,101.0,104.0,100.0,13.4,1505.3,323.2,-0.7,1.8,2470.382,13.33,0.028,288.4
2020-03-17T08:37:03,42.805,6.029,-0.015,0.013,-0.028,103.0,106.0,100.0,13.4,1505.3,323.9,-0.7,1.9,2470.433,13.33,0.019,310.9
2020-03-17T08:40:03,42.805,6.029,-0.017,0.006,-0.055,103.0,104.0,101.0,13.3,1505.3,327.4,-0.7,1.8,2470.322,13.33,0.018,289.4
2020-03-17T08:43:03,42.805,6.029,-0.011,-0.009,-0.05,103.0,105.0,100.0,13.4,1505.3,324.2,-0.7,1.8,2470.382,13.33,0.014,230.7
2020-03-17T08:46:03,42.805,6.029,-0.038,-0.014,-0.048,103.0,104.0,100.0,13.3,1505.3,326.0,-0.7,1.8,2470.343,13.33,0.04,249.8
2020-03-17T08:49:03,42.805,6.029,-0.007,-0.003,-0.062,103.0,104.0,101.0,13.3,1505.3,324.4,-0.7,1.8,2470.404,13.33,0.007,246.8
2020-03-17T08:52:03,42.805,6.029,-0.01,-0.014,-0.049,102.0,104.0,101.0,13.3,1505.3,323.5,-0.7,1.9,2470.368,13.33,0.017,215.5
2020-03-17T08:55:03,42.805,6.029,-0.004,0.001,-0.027,103.0,103.0,101.0,13.3,1505.3,323.7,-0.7,1.8,2470.39,13.33,0.004,284.0
2020-03-17T08:58:03,42.805,6.029,-0.034,0.0,-0.046,101.0,106.0,102.0,13.3,1505.3,323.8,-0.7,1.8,2470.366,13.33,0.034,270.0
2020-03-17T09:04:03,42.805,6.029,-0.015,-0.015,-0.051,103.0,105.0,101.0,13.4,1505.3,325.8,-0.8,1.8,2470.442,13.31,0.021,225.0
2020-03-17T09:07:03,42.805,6.029,-0.032,0.001,-0.026,104.0,104.0,101.0,13.4,1505.3,327.8,-0.7,1.8,2470.405,13.31,0.032,271.8
2020-03-17T09:10:03,42.805,6.029,-0.032,-0.012,-0.053,103.0,105.0,102.0,13.4,1505.3,328.3,-0.7,1.8,2470.417,13.32,0.034,249.4
2020-03-17T09:13:03,42.805,6.029,-0.004,0.013,-0.011,102.0,106.0,100.0,13.4,1505.3,327.8,-0.7,1.8,2470.399,13.32,0.013,342.9
2020-03-17T09:16:03,42.805,6.029,-0.028,0.015,-0.017,104.0,106.0,100.0,13.4,1505.3,327.9,-0.7,1.8,2470.415,13.32,0.031,298.2
2020-03-17T09:19:03,42.805,6.029,-0.005,0.002,-0.021,105.0,106.0,102.0,13.4,1505.3,327.9,-0.7,1.8,2470.418,13.33,0.005,291.8
2020-03-17T09:22:03,42.805,6.029,0.002,-0.031,-0.038,104.0,104.0,102.0,13.3,1505.3,324.9,-0.7,1.8,2470.427,13.33,0.031,176.3
2020-03-17T09:25:03,42.805,6.029,-0.019,-0.001,-0.035,102.0,105.0,100.0,13.4,1505.3,324.8,-0.7,1.8,2470.402,13.33,0.019,267.0
2020-03-17T09:28:03,42.805,6.029,0.013,0.004,-0.013,103.0,105.0,101.0,13.4,1505.3,325.3,-0.7,1.9,2470.437,13.33,0.013,72.9
2020-03-17T09:31:03,42.805,6.029,0.003,-0.005,-0.039,102.0,105.0,101.0,13.4,1505.3,325.7,-0.7,1.8,2470.398,13.33,0.005,149.0
2020-03-17T09:34:03,42.805,6.029,-0.007,0.0,-0.027,103.0,105.0,100.0,13.4,1505.3,326.4,-0.7,1.8,2470.393,13.33,0.007,270.0
2020-03-17T09:37:03,42.805,6.029,-0.032,-0.024,-0.063,101.0,106.0,101.0,13.4,1505.3,325.2,-0.7,1.8,2470.395,13.33,0.04,233.1
2020-03-17T09:40:03,42.805,6.029,-0.045,-0.015,-0.05,103.0,106.0,101.0,13.3,1505.3,323.6,-0.7,1.8,2470.374,13.33,0.047,251.6
2020-03-17T09:43:03,42.805,6.029,-0.007,-0.004,-0.037,105.0,106.0,100.0,13.4,1505.3,327.8,-0.7,1.8,2470.377,13.33,0.008,240.3
2020-03-17T09:46:03,42.805,6.029,-0.002,-0.011,-0.043,104.0,104.0,100.0,13.3,1505.3,327.9,-0.7,1.8,2470.358,13.33,0.011,190.3
2020-03-17T09:49:03,42.805,6.029,-0.027,-0.002,-0.025,103.0,106.0,101.0,13.4,1505.3,327.5,-0.7,1.8,2470.44,13.33,0.027,265.8
2020-03-17T09:52:03,42.805,6.029,-0.043,0.001,-0.04,104.0,104.0,101.0,13.4,1505.3,328.4,-0.7,1.8,2470.417,13.33,0.043,271.3